Location: Newark
(52.2090°N, 4.1550°W)
Time: 09:30:18
(UTC+00:00)

Transit 4A - Pass Details

Date: 24 October 2019
Orbit: 869 x 976 km, 66.8° (Epoch: 20 November)

Event Time Altitude Azimuth Distance (km) Brightness Sun altitude
Exits shadow 02:59:00 17° 131° (SE) 2,204 10.0 -36.0°
Maximum altitude 03:01:02 20° 106° (ESE) 2,044 10.0 -35.7°
Drops below altitude 10° 03:05:24 10° 62° (ENE) 2,670 11.1 -35.1°
Sets 03:08:33 0° 46° (NE) 3,600 11.9 -34.7°
